[[{"header":{"parameterUnit":"m.s-1","parameterCategory":1,"la1":30.2991,"la2":30.254,"lo1":-89.0895,"lo2":-89.0444,"dy":0.0017,"dx":0.0017,"nx":28,"ny":28,"refTime":"2025-03-19T09:00:00:Z","depth":0,"parameterNumber":2,"parameterNumberName":"U-component_of_WINDS"},"data":[0,0,0,0,0,0,0,0,0,0,0,0,0,0,0,0,0,0,0,0,0,0,0,0,0,0,0,0,0,0,0,0,0,0,0,0,0,0,0,0,0,0,0,0,0,0,0,0,0,0,0,0,0,0,0,0,0,0,-0.7926,-0.7925,0,-0.7881,-0.788,-0.788,-0.7861,-0.7861,-0.7861,-0.7861,-0.7817,-0.7816,-0.7814,0,0,0,0,0,0,0,0,0,0,0,0,0,-0.7997,-0.7996,-0.7926,-0.7925,-0.7925,-0.7881,-0.788,-0.788,-0.7861,-0.7861,-0.7861,-0.7861,-0.7817,-0.7816,-0.7814,0,0,0,0,0,0,0,0,0,0,0,0,0,-0.796,-0.7995,-0.7926,-0.791,-0.7908,-0.7881,-0.788,-0.788,-0.7861,-0.7861,-0.7861,-0.7861,-0.7818,-0.7816,-0.7814,-0.78,0,0,-0.7808,-0.7808,0,0,0,0,0,0,0,0,-0.7963,-0.7958,-0.7913,-0.7911,-0.7909,-0.7877,-0.7889,-0.7853,-0.7861,-0.7879,-0.7861,-0.7861,-0.7837,-0.7833,-0.7825,-0.7798,-0.7797,-0.7808,-0.7807,-0.7806,-0.7806,0,0,0,0,0,0,0,-0.7965,-0.796,-0.7908,-0.7912,-0.791,-0.7906,-0.7901,-0.7882,-0.7858,-0.7877,-0.7876,-0.7871,-0.7836,-0.7827,-0.7824,-0.7796,-0.7808,-0.7807,-0.7806,-0.7805,-0.7756,-0.7756,0,0,0,0,0,0,-0.797,-0.7962,-0.791,-0.7907,-0.7936,-0.7904,-0.7899,-0.7887,-0.7858,-0.7854,-0.7871,-0.787,-0.783,-0.7826,-0.7822,-0.7804,-0.7806,-0.7805,-0.7804,-0.7757,-0.7756,-0.7756,0,0,0,0,0,0,-0.7972,-0.7965,-0.7911,-0.7934,-0.7927,-0.7903,-0.789,-0.7886,-0.7877,-0.7853,-0.7849,-0.7866,-0.783,-0.7825,-0.7806,-0.7802,-0.7804,-0.7802,-0.7757,-0.7756,-0.7756,-0.7768,0,0,0,0,0,0,-0.7974,-0.7966,-0.796,-0.7934,-0.7926,-0.7895,-0.789,-0.7885,-0.7873,-0.7872,-0.7847,-0.7843,-0.7829,-0.7809,-0.7804,-0.78,-0.7801,-0.7757,-0.7757,-0.7756,-0.7768,-0.7768,-0.7769,0,0,0,0,0,-0.7976,-0.7966,-0.796,-0.7954,-0.7918,-0.7895,-0.7891,-0.7875,-0.7873,-0.7867,-0.7852,-0.7844,-0.7804,-0.7807,-0.7802,-0.7797,-0.7757,-0.7757,-0.7756,-0.7768,-0.7768,-0.7769,0,0,0,0,0,0,-0.7993,-0.7962,-0.7955,-0.7936,-0.7918,-0.7892,-0.7884,-0.7876,-0.7858,-0.7858,-0.7839,-0.7834,-0.7817,-0.7805,-0.7809,-0.7782,-0.778,-0.7778,-0.779,-0.7791,-0.7791,-0.7794,-0.7799,0,0,0,0,0,-0.7994,-0.7978,-0.7952,-0.7937,-0.7929,-0.7908,-0.7898,-0.7887,-0.7868,-0.7861,-0.7844,-0.7827,-0.781,-0.78,-0.7783,-0.7766,-0.7761,-0.776,-0.7761,-0.7761,-0.776,-0.775,-0.775,-0.7755,-0.7755,-0.7755,0,0,-0.7997,-0.7978,-0.7969,-0.794,-0.7925,-0.791,-0.7902,-0.7886,-0.7874,-0.7859,-0.784,-0.7827,-0.7807,-0.7789,-0.778,-0.7778,-0.7757,-0.7761,-0.7761,-0.776,-0.775,-0.7749,-0.7749,-0.7755,-0.7755,-0.7755,0,0,-0.7994,-0.7978,-0.7963,-0.7949,-0.7926,-0.7912,-0.7909,-0.7884,-0.7875,-0.7856,-0.7844,-0.783,-0.7802,-0.7788,-0.7777,-0.7769,-0.7761,-0.7764,-0.7766,-0.7756,-0.7756,-0.7756,-0.7753,-0.7752,-0.7763,-0.7763,-0.7763,0,-0.8,-0.7975,-0.7958,-0.7942,-0.793,-0.7915,-0.7901,-0.7887,-0.7861,-0.7853,-0.7851,-0.7816,-0.7801,-0.778,-0.7778,-0.7769,-0.7765,-0.7766,-0.7757,-0.7757,-0.7756,-0.7753,-0.7752,-0.7764,-0.7763,-0.7763,-0.7763,0,-0.7984,-0.7967,-0.7958,-0.7932,-0.7919,-0.7905,-0.7886,-0.7875,-0.7865,-0.7852,-0.7833,-0.7815,-0.7794,-0.7788,-0.7779,-0.7766,-0.7765,-0.7761,-0.7758,-0.7756,-0.7753,-0.7752,-0.7764,-0.7764,-0.7764,-0.7764,0,0,-0.799,-0.7954,-0.7951,-0.7939,-0.7913,-0.79,-0.7885,-0.7865,-0.7856,-0.7838,-0.7825,-0.7802,-0.7797,-0.7785,-0.7774,-0.7766,-0.7761,-0.7763,-0.7762,-0.7763,-0.7746,-0.7749,-0.7748,-0.7756,-0.7755,-0.7755,-0.7747,0,-0.7983,-0.7954,-0.7938,-0.7916,-0.79,-0.7886,-0.7873,-0.7856,-0.7844,-0.7829,-0.7815,-0.7799,-0.7794,-0.7787,-0.7778,-0.7764,-0.7757,-0.7764,-0.7744,-0.7743,-0.7749,-0.7746,-0.775,-0.7743,-0.7746,-0.7746,-0.7746,0,-0.7971,-0.7952,-0.7929,-0.7905,-0.7898,-0.7886,-0.7866,-0.7852,-0.7833,-0.7824,-0.7811,-0.78,-0.7784,-0.7783,-0.7761,-0.7766,-0.7757,-0.7749,-0.7748,-0.7745,-0.7744,-0.7743,-0.774,-0.7739,-0.7743,-0.7744,-0.7744,0,-0.7977,-0.7947,-0.7929,-0.7919,-0.7891,-0.7883,-0.7871,-0.7851,-0.784,-0.7823,-0.7816,-0.7797,-0.7787,-0.7773,-0.7758,-0.7759,-0.7738,-0.7735,-0.7731,-0.7731,-0.7727,-0.7727,-0.7722,-0.7721,-0.7721,-0.7721,-0.7721,0,-0.7971,-0.7957,-0.7931,-0.792,-0.7904,-0.7887,-0.7872,-0.7859,-0.7842,-0.7829,-0.7816,-0.7804,-0.7784,-0.777,-0.7758,-0.7742,-0.7737,-0.773,-0.7727,-0.7731,-0.7732,-0.7725,-0.7725,-0.7721,-0.7721,-0.7721,-0.7721,0,-0.7975,-0.7957,-0.7936,-0.7911,-0.7904,-0.7894,-0.7873,-0.7862,-0.7848,-0.7832,-0.7827,-0.7806,-0.7789,-0.7772,-0.7749,-0.7741,-0.7725,-0.7721,-0.7731,-0.773,-0.7726,-0.7726,-0.7716,-0.7713,-0.7715,-0.7715,-0.7715,0,-0.7972,-0.7961,-0.7934,-0.7924,-0.7912,-0.7896,-0.7884,-0.7866,-0.7855,-0.7832,-0.7824,-0.7806,-0.779,-0.7763,-0.7746,-0.7729,-0.7724,-0.7722,-0.7721,-0.7726,-0.7724,-0.7725,-0.7724,-0.7722,-0.7722,-0.7722,-0.7722,0,-0.7969,-0.796,-0.7943,-0.7924,-0.791,-0.7893,-0.7877,-0.7869,-0.7849,-0.7837,-0.7818,-0.7806,-0.7782,-0.7764,-0.7745,-0.7733,-0.7724,-0.7722,-0.772,-0.7724,-0.773,-0.7727,-0.7732,-0.7723,-0.7723,-0.7722,-0.7722,-0.7722,-0.7969,-0.7959,-0.7938,-0.792,-0.7905,-0.789,-0.7878,-0.7864,-0.7848,-0.7826,-0.7817,-0.7799,-0.7781,-0.7753,-0.7742,-0.7727,-0.7725,-0.7723,-0.7722,-0.7721,-0.7722,-0.7733,-0.7724,-0.7724,-0.7724,-0.7724,-0.7724,0,-0.7965,-0.7951,-0.7934,-0.7911,-0.7897,-0.7889,-0.7871,-0.786,-0.7843,-0.7826,-0.7811,-0.779,-0.7773,-0.7755,-0.7736,-0.7728,-0.7724,-0.7724,-0.7725,-0.7722,-0.7725,-0.7728,-0.7728,-0.7728,-0.7728,-0.7728,-0.7728,-0.7728,-0.7961,-0.7943,-0.7932,-0.7907,-0.7893,-0.7874,-0.7864,-0.785,-0.7837,-0.7814,-0.7799,-0.7787,-0.777,-0.7751,-0.7734,-0.773,-0.7724,-0.7725,-0.7719,-0.7722,-0.7722,-0.7722,-0.7725,-0.7724,-0.7724,-0.7717,-0.7717,-0.7717]},{"header":{"parameterUnit":"m.s-1","parameterCategory":1,"la1":30.2991,"la2":30.254,"lo1":-89.0895,"lo2":-89.0444,"dy":0.0017,"dx":0.0017,"nx":28,"ny":28,"refTime":"2025-03-19T09:00:00:Z","depth":0,"parameterNumber":3,"parameterNumberName":"V-component_of_WINDS"},"data":[0,0,0,0,0,0,0,0,0,0,0,0,0,0,0,0,0,0,0,0,0,0,0,0,0,0,0,0,0,0,0,0,0,0,0,0,0,0,0,0,0,0,0,0,0,0,0,0,0,0,0,0,0,0,0,0,0,0,6.1318,6.132,0,6.1499,6.1501,6.1503,6.1497,6.1494,6.1492,6.1489,6.1667,6.1674,6.1681,0,0,0,0,0,0,0,0,0,0,0,0,0,6.0961,6.0967,6.1318,6.132,6.1323,6.1498,6.1501,6.1503,6.1497,6.1494,6.1491,6.1488,6.1665,6.1673,6.1682,0,0,0,0,0,0,0,0,0,0,0,0,0,6.1126,6.0969,6.1318,6.1341,6.1345,6.1498,6.1501,6.1504,6.1498,6.1494,6.149,6.1487,6.1662,6.1672,6.1683,6.1822,0,0,6.1715,6.172,0,0,0,0,0,0,0,0,6.1116,6.1139,6.1335,6.134,6.1344,6.1472,6.144,6.161,6.1499,6.1439,6.1489,6.1485,6.1605,6.162,6.1661,6.1831,6.1838,6.1716,6.1722,6.1727,6.173,0,0,0,0,0,0,0,6.1105,6.1131,6.1389,6.1338,6.1344,6.134,6.1359,6.1472,6.154,6.1444,6.1444,6.1466,6.1606,6.1651,6.1666,6.1841,6.1716,6.1725,6.1732,6.1736,6.2132,6.2136,0,0,0,0,0,0,6.109,6.1122,6.1383,6.1395,6.1219,6.1349,6.1371,6.1434,6.1539,6.1552,6.1469,6.1465,6.1635,6.1653,6.1672,6.1841,6.1727,6.1737,6.1743,6.2128,6.2133,6.2137,0,0,0,0,0,0,6.1082,6.1113,6.1376,6.1258,6.1292,6.1359,6.1431,6.144,6.1485,6.1558,6.1569,6.1503,6.1633,6.1657,6.1785,6.1847,6.1741,6.1751,6.2123,6.2129,6.2135,6.2181,0,0,0,0,0,0,6.1072,6.111,6.1166,6.126,6.1298,6.1489,6.1434,6.1446,6.1504,6.15,6.1593,6.1605,6.1632,6.1769,6.1796,6.186,6.1759,6.2117,6.2125,6.2133,6.2174,6.2188,6.22,0,0,0,0,0,6.1059,6.1171,6.1169,6.12,6.1369,6.1493,6.1514,6.1545,6.1509,6.1564,6.1611,6.1602,6.1836,6.1783,6.1812,6.188,6.2113,6.2123,6.2132,6.2169,6.2185,6.22,0,0,0,0,0,0,6.108,6.1183,6.1182,6.1328,6.1402,6.1491,6.1562,6.1562,6.1646,6.1639,6.1672,6.1692,6.182,6.1863,6.1801,6.202,6.197,6.1986,6.1987,6.2004,6.2017,6.2003,6.1768,0,0,0,0,0,6.1102,6.1196,6.128,6.14,6.1438,6.1494,6.1548,6.1566,6.1643,6.1673,6.1729,6.1802,6.1892,6.1951,6.2037,6.2181,6.2199,6.2242,6.2255,6.2265,6.2278,6.2355,6.2374,6.2168,6.2168,6.2168,0,0,6.1148,6.1216,6.1273,6.1407,6.1466,6.156,6.152,6.1621,6.1691,6.1688,6.1813,6.1856,6.1939,6.2076,6.2138,6.2115,6.2339,6.2277,6.2285,6.2292,6.2366,6.2386,6.2403,6.2174,6.2173,6.2172,0,0,6.1279,6.1341,6.1447,6.1508,6.1599,6.1635,6.166,6.175,6.178,6.1906,6.1906,6.1987,6.2142,6.2201,6.2251,6.2404,6.2398,6.2431,6.2498,6.2573,6.2589,6.2603,6.2656,6.2675,6.2444,6.2444,6.2444,0,6.1323,6.1468,6.1501,6.1604,6.1662,6.1666,6.1772,6.1828,6.1942,6.1981,6.1954,6.2148,6.2204,6.2353,6.239,6.2431,6.2459,6.242,6.2584,6.2599,6.2613,6.2664,6.2684,6.2447,6.2447,6.2447,6.2446,0,6.1517,6.1617,6.1692,6.1804,6.187,6.1974,6.2021,6.2083,6.2095,6.2133,6.226,6.2328,6.2428,6.2465,6.2477,6.2616,6.2598,6.2578,6.2528,6.2636,6.2684,6.2704,6.2452,6.2451,6.245,6.2449,0,0,6.1667,6.1796,6.1823,6.1873,6.1973,6.205,6.2153,6.2253,6.2305,6.2383,6.2468,6.2599,6.2581,6.2638,6.2656,6.2722,6.2836,6.2693,6.2695,6.2716,6.2991,6.3005,6.3027,6.2833,6.2837,6.284,6.2984,0,6.1807,6.1993,6.2026,6.2187,6.2278,6.2283,6.2372,6.2442,6.248,6.2561,6.2602,6.2694,6.2663,6.2698,6.2763,6.2809,6.2892,6.2799,6.2911,6.2914,6.2889,6.3053,6.3068,6.32,6.3003,6.3006,6.3008,0,6.1996,6.2081,6.2252,6.2339,6.2378,6.2459,6.2552,6.2631,6.2709,6.2732,6.2795,6.2806,6.291,6.2857,6.2999,6.2935,6.2983,6.3012,6.3018,6.3028,6.2967,6.3066,6.3244,6.3263,6.3039,6.3036,6.3034,0,6.2086,6.2243,6.2365,6.2408,6.2513,6.2569,6.2615,6.269,6.2747,6.2828,6.2866,6.2957,6.3006,6.3076,6.3109,6.3068,6.3249,6.3199,6.3269,6.3268,6.3306,6.3303,6.3492,6.3339,6.3339,6.3339,6.3338,0,6.2239,6.2343,6.2407,6.2482,6.2597,6.2633,6.2745,6.279,6.2856,6.2938,6.2947,6.3023,6.3063,6.3144,6.3171,6.3284,6.3307,6.3326,6.3332,6.3325,6.3323,6.3356,6.3347,6.3344,6.3343,6.3342,6.3341,0,6.2359,6.2407,6.254,6.2629,6.2653,6.2734,6.2809,6.288,6.2918,6.3022,6.3048,6.3106,6.3202,6.3244,6.3361,6.3379,6.3508,6.3507,6.3482,6.3484,6.3551,6.3544,6.3767,6.3797,6.3625,6.3627,6.3628,0,6.2453,6.2534,6.2631,6.2688,6.2736,6.2827,6.2886,6.2923,6.2984,6.3079,6.3138,6.3235,6.3314,6.3467,6.3518,6.3607,6.3608,6.368,6.3621,6.3612,6.3607,6.3602,6.3609,6.369,6.3692,6.3694,6.3695,0,6.2615,6.2634,6.2721,6.2815,6.2886,6.2962,6.3036,6.308,6.3129,6.3196,6.3296,6.3357,6.3478,6.3573,6.3665,6.3709,6.371,6.3713,6.3734,6.3727,6.3709,6.3718,6.351,6.3708,6.3706,6.3705,6.3705,6.3704,6.2724,6.2795,6.2875,6.297,6.303,6.3099,6.317,6.3217,6.3302,6.3404,6.342,6.3526,6.36,6.3725,6.3772,6.3854,6.3835,6.3866,6.3873,6.388,6.3883,6.3697,6.3871,6.387,6.387,6.387,6.387,0,6.2885,6.2936,6.3024,6.3128,6.3202,6.3198,6.3279,6.3341,6.3435,6.3505,6.3583,6.3696,6.3788,6.3847,6.3939,6.3993,6.3995,6.4015,6.4011,6.4021,6.3895,6.3868,6.4012,6.4012,6.4012,6.4012,6.4012,6.4012,6.2977,6.3097,6.3125,6.3273,6.3324,6.3429,6.3475,6.3538,6.3594,6.3721,6.3798,6.3836,6.3902,6.3998,6.4082,6.4096,6.4129,6.4151,6.4164,6.4045,6.403,6.4016,6.399,6.4158,6.4158,6.4283,6.4284,6.4285]}]]